DW8108 Weather Reports


time (UTC)temp
F
wind
direction
speed
knots
gust
knots
rain 1hr
in
rain 24hr
in
rain mn
in
humidity
%
barometer
mb
20260509111548 51 0.0 6.1 0.00 0.07 0.00 96 1004.7
20260509110053 51 0.0 6.1 0.00 0.07 0.00 96 1004.6
20260509104546 50 0.0 7.8 0.00 0.07 0.00 96 1004.7
20260509103044 50 0.0 5.2 0.00 0.07 0.00 96 1004.8
20260509101544 50 0.0 6.1 0.00 0.07 0.00 95 1004.9
20260509100041 50 0.0 6.1 0.00 0.07 0.00 95 1004.9
20260509094542 50 0.0 6.1 0.00 0.07 0.00 95 1004.9
20260509093040 50 0.0 6.1 0.00 0.07 0.00 95 1005.0
20260509091540 50 0.0 7.0 0.00 0.07 0.00 95 1005.1
20260509090039 49 0.0 7.0 0.00 0.07 0.00 95 1005.1
20260509084541 49 0.0 5.2 0.00 0.07 0.00 94 1005.0
20260509083037 49 0.0 3.5 0.00 0.07 0.00 94 1005.1
20260509081536 50 0.0 5.2 0.00 0.07 0.00 94 1005.2
20260509080053 50 0.0 3.5 0.00 0.07 0.00 94 1005.2
20260509074534 50 0.0 3.5 0.00 0.07 0.00 93 1005.0
20260509073058 50 0.0 2.6 0.00 0.07 0.00 93 1005.2
20260509071530 51 0.0 1.7 0.00 0.07 0.00 93 1005.4
20260509070028 51 0.0 2.6 0.00 0.07 0.00 93 1005.5
20260509064528 51 0.0 4.3 0.00 0.07 0.00 93 1005.6
20260509063029 52 0.0 3.5 0.00 0.07 0.00 93 1005.5
20260509061524 52 0.0 2.6 0.00 0.07 0.00 93 1005.7
20260509060021 52 0.0 5.2 0.00 0.07 0.00 92 1005.9
20260509054528 52 0.0 3.5 0.00 0.07 0.00 92 1006.0
20260509053119 52 0.0 5.2 0.00 0.07 0.00 92 1006.0
20260509051516 53 0.0 4.3 0.00 0.07 0.00 91 1006.2
20260509050014 53 0.0 3.5 0.00 0.07 0.00 91 1006.2
20260509044515 53 0.0 3.5 0.00 0.07 0.07 90 1006.4
20260509043031 53 0.0 3.5 0.00 0.07 0.07 90 1006.4
20260509041513 53 0.0 4.3 0.00 0.07 0.07 89 1006.4
20260509040012 54 0.0 2.6 0.00 0.07 0.07 89 1006.5
20260509034513 54 0.0 3.5 0.00 0.07 0.07 88 1006.6
20260509033011 54 0.0 3.5 0.00 0.07 0.07 87 1006.9
20260509031510 55 0.0 3.5 0.00 0.07 0.07 86 1006.9
20260509030009 55 0.0 3.5 0.00 0.07 0.07 85 1007.0
20260509024511 55 0.0 3.5 0.00 0.07 0.07 85 1006.8
20260509023017 56 0.0 4.3 0.00 0.07 0.07 84 1006.8
20260509021517 56 0.0 3.5 0.00 0.07 0.07 83 1006.8
20260509020008 57 0.0 4.3 0.00 0.07 0.07 82 1006.8
20260509014507 57 0.0 3.5 0.00 0.07 0.07 81 1006.7
20260509013020 58 0.0 4.3 0.00 0.07 0.07 79 1006.7
20260509011507 59 0.0 4.3 0.00 0.07 0.07 78 1006.7
20260509010006 59 0.0 9.6 0.00 0.07 0.07 77 1006.6
20260509004517 60 0.0 7.8 0.00 0.07 0.07 75 1006.5
20260509003006 61 0.0 7.8 0.00 0.07 0.07 75 1006.4
20260509001504 61 0.0 11.3 0.00 0.07 0.07 73 1006.3
20260509000003 62 0.0 12.2 0.00 0.07 0.07 71 1006.4
20260508234503 63 0.0 8.7 0.00 0.07 0.07 68 1006.4
20260508233002 63 0.0 12.2 0.00 0.07 0.07 67 1006.4
20260508231501 64 0.0 13.0 0.00 0.07 0.07 68 1006.4
20260508224559 64 0.0 10.4 0.00 0.07 0.07 69 1006.4
20260508223057 64 0.0 12.2 0.00 0.07 0.07 70 1006.6
20260508221557 64 0.0 10.4 0.00 0.07 0.07 70 1006.7
20260508220059 64 0.0 10.4 0.00 0.07 0.07 69 1006.7
20260508214554 64 0.0 10.4 0.00 0.07 0.07 71 1006.7
20260508213053 63 0.0 8.7 0.00 0.07 0.07 73 1006.7
20260508211557 63 0.0 9.6 0.00 0.07 0.07 73 1006.7
20260508210106 63 0.0 9.6 0.00 0.07 0.07 72 1006.8
20260508204554 63 0.0 10.4 0.00 0.07 0.07 72 1006.9
20260508203049 63 0.0 12.2 0.00 0.07 0.07 72 1007.1
20260508201546 63 0.0 10.4 0.00 0.07 0.07 72 1007.3
20260508200048 63 0.0 9.6 0.00 0.07 0.07 70 1007.6
20260508194547 63 0.0 10.4 0.00 0.07 0.07 70 1007.6
20260508193050 64 0.0 9.6 0.00 0.07 0.07 70 1007.7
20260508191541 64 0.0 2.6 0.00 0.07 0.07 68 1007.8
20260508190049 63 0.0 0.0 0.00 0.07 0.07 69 1008.0
20260508184554 62 0.0 0.0 0.00 0.07 0.07 69 1008.3
20260508183034 62 0.0 2.6 0.00 0.07 0.07 68 1008.6
20260508181547 62 0.0 4.3 0.00 0.07 0.07 69 1008.5
20260508180032 62 0.0 2.6 0.00 0.07 0.07 71 1008.7
20260508174527 62 0.0 4.3 0.00 0.07 0.07 71 1008.9
20260508173024 62 0.0 6.1 0.00 0.07 0.07 70 1009.3
20260508171522 62 0.0 2.6 0.00 0.07 0.07 72 1009.7
20260508170021 62 0.0 4.3 0.00 0.07 0.07 73 1009.7
20260508164516 61 0.0 6.1 0.00 0.07 0.07 74 1009.9
20260508163013 60 0.0 4.3 0.00 0.07 0.07 75 1010.1
20260508161508 59 0.0 5.2 0.00 0.07 0.07 79 1010.3
20260508160011 58 0.0 5.2 0.00 0.07 0.07 81 1010.5
20260508154501 58 0.0 5.2 0.00 0.07 0.07 83 1010.7
20260508153059 57 0.0 6.1 0.00 0.07 0.07 86 1010.8
20260508151602 56 0.0 4.3 0.00 0.07 0.07 90 1010.8
20260508150101 55 0.0 5.2 0.00 0.07 0.07 92 1010.8
20260508144619 54 0.0 5.2 0.00 0.07 0.07 94 1011.0
20260508143101 54 0.0 4.3 0.00 0.07 0.07 95 1010.9
20260508141559 53 0.0 2.6 0.00 0.07 0.07 95 1010.9
20260508140050 53 0.0 4.3 0.00 0.07 0.07 96 1011.0
20260508134553 52 0.0 5.2 0.00 0.07 0.07 95 1011.1
20260508133109 52 0.0 3.5 0.01 0.07 0.07 95 1011.2
20260508131544 51 0.0 6.1 0.04 0.07 0.07 95 1011.2
20260508130038 50 0.0 3.5 0.05 0.07 0.07 95 1011.2
20260508124536 49 0.0 4.3 0.07 0.07 0.07 94 1011.5
20260508123043 49 0.0 3.5 0.06 0.06 0.06 94 1011.7
20260508121536 49 0.0 3.5 0.03 0.03 0.03 94 1011.9
20260508120029 48 0.0 3.5 0.02 0.02 0.02 94 1011.2
20260508114527 48 0.0 3.5 0.00 0.00 0.00 93 1011.6
20260508113026 47 0.0 0.0 0.00 0.00 0.00 93 1011.1